COSMOS 2563 (54223 NORAD) Tracking and Keplerian Element Data

This shows tracking and keplerian element data for the satellite.

Feedback or suggestion? Click here.




ElementValue
Catalog54223
NameCOSMOS 2563
Epoch Orbit142
Epoch Day12.52012922
Epoch Year2023
RAAN85.0666
Inclination63.8209
Eccentricity0.7022528
Argument of Perigee269.737
Mean Anonmoly17.1309
Mean Motion2.00619735
Decay Rate-4.43E-06
L11 54223U 22145A 23012.52012922 -.00000443 00000+0 00000+0 0 9991
L22 54223 63.8209 85.0666 7022528 269.7370 17.1309 2.00619735 1428



Live tracking and technical data element details for COSMOS 2563 (NORAD 54223). COSMOS 2563 can be tracked NOW for your location showing map with azimuth and elevation plus other details from your city location.







IsCatalogInMostPopularTable: catalog: 54223, numindb: 14
Update: records affected: 1



GetName: 54223 COSMOS 2563

Hit Count: updated at: Fri, 27 Jan 2023 21:27:19 GMT